Weather History for Marathon, FL

Change the Weather History Date:

Sunday, July 14, 2013

  Actual Average Record
Temperature  
Mean Temperature 84 °F 85 °F  
Max Temperature 90 °F 91 °F 93 °F (1997)
Min Temperature 77 °F 79 °F 74 °F (2008)
Degree Days  
Heating Degree Days 0 0  
Month to date heating degree days 0 0  
Since 1 June heating degree days 0 0  
Since 1 July heating degree days 0 0  
Cooling Degree Days 19 20  
Month to date cooling degree days 282 280  
Year to date cooling degree days 2728 2417  
Since 1 June cooling degree days 898 874  
Growing Degree Days 33 (Base 50)    
Moisture  
Dew Point 72 °F    
Average Humidity 67    
Maximum Humidity 79    
Minimum Humidity 55    
Precipitation  
Precipitation 0.18 in 0.13 in 0.71 in (2010)
Month to date precipitation 2.59 1.81  
Year to date precipitation 31.60 19.36  
Snow  
Snow 0.00 in - - ()
Month to date snowfall 0.0  
Since 1 June snowfall 0.0  
Since 1 July snowfall 0.0  
Snow Depth 0.00 in    
Sea Level Pressure  
Sea Level Pressure 30.03 in    
Wind  
Wind Speed 9 mph (ESE)    
Max Wind Speed 22 mph    
Max Gust Speed 28 mph    
Visibility 9 miles    
Events Rain , Thunderstorm    
T = Trace of Precipitation, MM = Missing Value Source: NWS Daily Summary

Daily Weather History Graph

Daily Weather History Graph

Search for Another Location

Airport:

Trip Planner

Search our weather history database for the weather conditions in past years. The results will help you decide how hot, cold, wet, or windy it might be!

Date:

Astronomy

Jul. 14, 2013 Rise Set
Actual Time 6:44 AM EDT 8:16 PM EDT
Civil Twilight 6:18 AM EDT 8:41 PM EDT
Nautical Twilight 5:48 AM EDT 9:11 PM EDT
Astronomical Twilight 5:17 AM EDT 9:42 PM EDT
Moon 12:14 PM EDT (7/14) No Moon Set
Length of Visible Light 14h 22m
Length of Day
13h 32m
Waxing Crescent, 35% of the Moon is Illuminated
Jul 14
Waxing Crescent
Jul 15
First Quarter
Jul 22
Full
Jul 29
Last Quarter
Aug 6
New

Hourly Weather History & Observations

Time (EDT) Temp. Heat Index Dew Point Humidity Pressure Visibility Wind Dir Wind Speed Gust Speed Precip Events Conditions
12:29 AM 78.8 °F - 71.6 °F 78% 30.04 in 7.0 mi SSE 10.4 mph - 0.00 in   Mostly Cloudy
12:41 AM 78.8 °F - 71.6 °F 78% 30.03 in 9.0 mi SSE 8.1 mph - 0.00 in   Mostly Cloudy
12:53 AM 78.1 °F - 72.0 °F 81% 30.04 in 10.0 mi SE 9.2 mph 16.1 mph 0.00 in   Mostly Cloudy
1:53 AM 78.1 °F - 71.1 °F 79% 30.01 in 8.0 mi South 9.2 mph 16.1 mph 0.03 in Rain Light Rain
2:53 AM 78.1 °F - 71.1 °F 79% 30.00 in 6.0 mi SE 11.5 mph 21.9 mph 0.06 in Rain Light Rain
3:53 AM 79.0 °F - 70.0 °F 74% 29.99 in 9.0 mi SSE 10.4 mph - 0.05 in Rain Light Rain
4:53 AM 81.0 °F 84.9 °F 71.1 °F 72% 29.99 in 10.0 mi SE 8.1 mph - 0.00 in   Clear
5:53 AM 81.0 °F 84.4 °F 70.0 °F 69% 29.97 in 10.0 mi ESE 6.9 mph - N/A   Partly Cloudy
6:53 AM 82.0 °F 86.3 °F 71.1 °F 69% 29.99 in 10.0 mi ESE 8.1 mph - N/A   Clear
7:53 AM 82.0 °F 86.3 °F 71.1 °F 69% 30.01 in 10.0 mi SE 6.9 mph - N/A   Clear
8:53 AM 84.0 °F 87.8 °F 69.1 °F 61% 30.03 in 10.0 mi SE 5.8 mph - N/A   Clear
9:53 AM 84.9 °F 89.4 °F 70.0 °F 61% 30.04 in 10.0 mi SE 4.6 mph - N/A   Clear
10:53 AM 87.1 °F 92.0 °F 70.0 °F 57% 30.05 in 10.0 mi SE 6.9 mph - N/A   Clear
11:53 AM 86.0 °F 93.0 °F 73.0 °F 65% 30.05 in 10.0 mi ESE 8.1 mph - N/A   Partly Cloudy
12:53 PM 87.1 °F 95.4 °F 73.9 °F 65% 30.06 in 10.0 mi ESE 6.9 mph - N/A   Partly Cloudy
1:53 PM 86.0 °F 93.8 °F 73.9 °F 67% 30.06 in 4.0 mi East 6.9 mph - N/A   Haze
2:53 PM 87.1 °F 96.3 °F 75.0 °F 67% 30.04 in 10.0 mi East 6.9 mph - N/A   Partly Cloudy
3:53 PM 88.0 °F 97.5 °F 75.0 °F 65% 30.02 in 10.0 mi East 9.2 mph - N/A   Clear
4:53 PM 88.0 °F 96.5 °F 73.9 °F 63% 30.01 in 10.0 mi ESE 11.5 mph 17.3 mph N/A   Partly Cloudy
5:53 PM 87.1 °F 94.5 °F 73.0 °F 63% 30.01 in 10.0 mi East 5.8 mph 16.1 mph N/A   Partly Cloudy
6:53 PM 86.0 °F 93.0 °F 73.0 °F 65% 30.02 in 10.0 mi East 8.1 mph - N/A   Partly Cloudy
7:53 PM 84.9 °F 90.7 °F 72.0 °F 65% 30.04 in 10.0 mi East 8.1 mph - N/A   Partly Cloudy
8:53 PM 84.9 °F 90.7 °F 72.0 °F 65% 30.04 in 10.0 mi East 9.2 mph - N/A   Mostly Cloudy
9:33 PM 84.2 °F 89.6 °F 71.6 °F 66% 30.04 in 10.0 mi ENE 6.9 mph - N/A Thunderstorm Mostly Cloudy
9:48 PM 84.2 °F 89.6 °F 71.6 °F 66% 30.04 in 10.0 mi ENE 8.1 mph - N/A   Scattered Clouds
9:53 PM 84.9 °F 90.7 °F 72.0 °F 65% 30.04 in 10.0 mi ENE 9.2 mph - N/A Thunderstorm Scattered Clouds
10:11 PM 82.4 °F 86.3 °F 69.8 °F 66% 30.05 in 10.0 mi ENE 15.0 mph 27.6 mph N/A Thunderstorm Scattered Clouds
10:32 PM 80.6 °F 84.6 °F 71.6 °F 74% 30.06 in 5.0 mi NE 15.0 mph - 0.02 in Rain Rain
10:53 PM 81.0 °F 86.2 °F 73.9 °F 79% 30.06 in 9.0 mi ENE 12.7 mph - 0.02 in Rain Light Rain
11:53 PM 80.1 °F 83.6 °F 71.1 °F 74% 30.07 in 10.0 mi NE 18.4 mph 24.2 mph 0.01 in   Scattered Clouds